• în România
  • Lista ţărilor
  • Pe 7 zile
  • Temperatura apei
  • Hartă satelitară
  • Meteo pe hartă
  • Widget-uri
  • user-avatar
    Intrare

    Meteo pe oră la Makocice

    Astăzi, 22 Octombrie, Luni

    Timp Temperatura Precipitaţii Vânt Presiune Umiditate
    00:00 +5°C° 0 mm 0 m/s 750 mmHg 86%
    01:00 +5°C° 0 mm 0 m/s 750 mmHg 88%
    02:00 +5°C° 0 mm 0 m/s 749 mmHg 88%
    03:00 +4°C° 0 mm 0 m/s 749 mmHg 89%
    04:00 +4°C° 0 mm 0 m/s 749 mmHg 89%
    05:00 +4°C° 0 mm 0 m/s 749 mmHg 89%
    06:00 +4°C° 0 mm 0 m/s 749 mmHg 89%
    07:00 +5°C° 0 mm 0 m/s 749 mmHg 84%
    08:00 +7°C° 0 mm 0 m/s 749 mmHg 77%
    09:00 +8°C° 0 mm 0 m/s 748 mmHg 70%
    10:00 +10°C° 0 mm 0 m/s 748 mmHg 63%
    11:00 +12°C° 0 mm 1 m/s 748 mmHg 59%
    12:00 +13°C° 0 mm 1 m/s 747 mmHg 55%
    13:00 +14°C° 0 mm 1 m/s 747 mmHg 51%
    14:00 +13°C° 0 mm 2 m/s 747 mmHg 53%
    15:00 +13°C° 0 mm 2 m/s 746 mmHg 56%
    16:00 +12°C° 0 mm 2 m/s 746 mmHg 58%
    17:00 +10°C° 0 mm 2 m/s 746 mmHg 62%
    18:00 +9°C° 0 mm 2 m/s 746 mmHg 66%
    19:00 +8°C° 0 mm 2 m/s 746 mmHg 70%
    20:00 +8°C° 0.1 mm 3 m/s 746 mmHg 71%
    21:00 +8°C° 0.1 mm 3 m/s 746 mmHg 72%
    22:00 +9°C° 0.1 mm 3 m/s 747 mmHg 73%
    23:00 +8°C° 0.2 mm 4 m/s 747 mmHg 75%

    Mâine, 23 Octombrie, Marţi

    Timp Temperatura Precipitaţii Vânt Presiune Umiditate
    00:00 +8°C° 0.2 mm 4 m/s 746 mmHg 78%
    01:00 +8°C° 0.2 mm 4 m/s 746 mmHg 80%
    02:00 +7°C° 0 mm 4 m/s 746 mmHg 81%
    03:00 +6°C° 0 mm 4 m/s 746 mmHg 82%
    04:00 +5°C° 0 mm 4 m/s 746 mmHg 83%
    05:00 +5°C° 0 mm 4 m/s 745 mmHg 84%
    06:00 +4°C° 0 mm 4 m/s 745 mmHg 85%
    07:00 +4°C° 0 mm 4 m/s 745 mmHg 87%
    08:00 +5°C° 0 mm 4 m/s 744 mmHg 79%
    09:00 +6°C° 0 mm 5 m/s 744 mmHg 70%
    10:00 +8°C° 0 mm 6 m/s 743 mmHg 62%
    11:00 +8°C° 0.1 mm 7 m/s 742 mmHg 60%
    12:00 +8°C° 0.1 mm 7 m/s 741 mmHg 59%
    13:00 +9°C° 0.1 mm 7 m/s 740 mmHg 57%
    14:00 +7°C° 0.2 mm 8 m/s 739 mmHg 60%
    15:00 +7°C° 0.2 mm 8 m/s 738 mmHg 63%
    16:00 +7°C° 0.2 mm 9 m/s 737 mmHg 66%
    17:00 +7°C° 0.5 mm 9 m/s 736 mmHg 69%
    18:00 +7°C° 0.5 mm 9 m/s 736 mmHg 73%
    19:00 +7°C° 0.5 mm 9 m/s 735 mmHg 77%
    20:00 +7°C° 0.7 mm 10 m/s 734 mmHg 78%
    21:00 +7°C° 0.7 mm 10 m/s 733 mmHg 79%
    22:00 +8°C° 0.7 mm 10 m/s 732 mmHg 81%
    23:00 +8°C° 1.4 mm 10 m/s 731 mmHg 81%

    Poimâine, 24 Octombrie, Miercuri

    Timp Temperatura Precipitaţii Vânt Presiune Umiditate
    00:00 +9°C° 1.4 mm 10 m/s 730 mmHg 81%
    01:00 +9°C° 1.4 mm 10 m/s 729 mmHg 82%
    02:00 +9°C° 1.5 mm 11 m/s 728 mmHg 80%
    03:00 +9°C° 1.5 mm 11 m/s 728 mmHg 79%
    04:00 +8°C° 1.5 mm 12 m/s 727 mmHg 78%
    05:00 +7°C° 0.5 mm 12 m/s 728 mmHg 74%
    06:00 +6°C° 0.5 mm 11 m/s 729 mmHg 70%
    07:00 +4°C° 0.5 mm 11 m/s 730 mmHg 66%
    08:00 +4°C° 0.2 mm 11 m/s 731 mmHg 60%
    09:00 +4°C° 0.2 mm 11 m/s 731 mmHg 55%
    10:00 +4°C° 0.2 mm 11 m/s 732 mmHg 50%
    11:00 +6°C° 0.1 mm 11 m/s 732 mmHg 48%
    12:00 +5°C° 0.1 mm 12 m/s 733 mmHg 45%
    13:00 +5°C° 0.1 mm 12 m/s 733 mmHg 43%
    14:00 +6°C° 0 mm 11 m/s 733 mmHg 43%
    15:00 +5°C° 0 mm 10 m/s 734 mmHg 44%
    16:00 +5°C° 0 mm 9 m/s 734 mmHg 45%
    17:00 +5°C° 0 mm 9 m/s 735 mmHg 46%
    18:00 +3°C° 0 mm 9 m/s 735 mmHg 48%
    19:00 +4°C° 0 mm 8 m/s 736 mmHg 50%
    20:00 +2°C° 0 mm 8 m/s 736 mmHg 53%
    21:00 +2°C° 0 mm 8 m/s 737 mmHg 55%
    22:00 +3°C° 0 mm 7 m/s 737 mmHg 58%
    23:00 +2°C° 0 mm 7 m/s 737 mmHg 61%

    25 Octombrie, Joi

    Timp Temperatura Precipitaţii Vânt Presiune Umiditate
    00:00 +2°C° 0 mm 7 m/s 738 mmHg 65%
    01:00 +2°C° 0 mm 6 m/s 738 mmHg 68%
    02:00 +2°C° 0 mm 6 m/s 738 mmHg 69%
    03:00 +2°C° 0 mm 6 m/s 737 mmHg 71%
    04:00 +2°C° 0 mm 6 m/s 737 mmHg 72%
    05:00 +2°C° 0.2 mm 5 m/s 736 mmHg 75%
    06:00 +2°C° 0.2 mm 5 m/s 736 mmHg 78%
    07:00 +3°C° 0.2 mm 5 m/s 735 mmHg 81%
    08:00 +4°C° 0.6 mm 6 m/s 735 mmHg 82%
    09:00 +6°C° 0.6 mm 7 m/s 734 mmHg 83%
    10:00 +7°C° 0.6 mm 8 m/s 733 mmHg 84%
    11:00 +8°C° 0.3 mm 9 m/s 733 mmHg 82%
    12:00 +8°C° 0.3 mm 9 m/s 733 mmHg 80%
    13:00 +8°C° 0.3 mm 9 m/s 732 mmHg 79%
    14:00 +8°C° 0.4 mm 9 m/s 733 mmHg 78%
    15:00 +8°C° 0.4 mm 9 m/s 733 mmHg 77%
    16:00 +8°C° 0.4 mm 9 m/s 734 mmHg 76%
    17:00 +7°C° 0.1 mm 8 m/s 734 mmHg 77%
    18:00 +6°C° 0.1 mm 7 m/s 735 mmHg 78%
    19:00 +7°C° 0.1 mm 6 m/s 735 mmHg 79%
    20:00 +5°C° 0 mm 6 m/s 736 mmHg 81%
    21:00 +5°C° 0 mm 6 m/s 736 mmHg 82%
    22:00 +6°C° 0 mm 5 m/s 737 mmHg 84%
    23:00 +6°C° 0 mm 5 m/s 737 mmHg 84%

    26 Octombrie, Vineri

    Timp Temperatura Precipitaţii Vânt Presiune Umiditate
    00:00 +5°C° 0 mm 5 m/s 737 mmHg 84%
    01:00 +5°C° 0 mm 5 m/s 737 mmHg 84%
    02:00 +5°C° 0 mm 5 m/s 737 mmHg 85%
    03:00 +5°C° 0 mm 5 m/s 738 mmHg 86%
    04:00 +5°C° 0 mm 4 m/s 738 mmHg 87%
    05:00 +4°C° 0 mm 4 m/s 738 mmHg 87%
    06:00 +4°C° 0 mm 4 m/s 738 mmHg 88%
    07:00 +4°C° 0 mm 3 m/s 738 mmHg 88%
    08:00 +5°C° 0 mm 3 m/s 738 mmHg 82%
    09:00 +7°C° 0 mm 4 m/s 738 mmHg 75%
    10:00 +8°C° 0 mm 4 m/s 738 mmHg 69%
    11:00 +10°C° 0 mm 4 m/s 738 mmHg 65%
    12:00 +11°C° 0 mm 3 m/s 738 mmHg 61%
    13:00 +11°C° 0 mm 3 m/s 737 mmHg 57%
    14:00 +11°C° 0 mm 3 m/s 737 mmHg 61%
    15:00 +10°C° 0 mm 2 m/s 737 mmHg 65%
    16:00 +11°C° 0 mm 1 m/s 736 mmHg 69%
    17:00 +9°C° 0 mm 2 m/s 736 mmHg 72%
    18:00 +9°C° 0 mm 2 m/s 736 mmHg 75%
    19:00 +8°C° 0 mm 2 m/s 736 mmHg 78%
    20:00 +8°C° 0 mm 2 m/s 736 mmHg 79%
    21:00 +8°C° 0 mm 2 m/s 735 mmHg 81%
    22:00 +7°C° 0 mm 2 m/s 735 mmHg 82%
    23:00 +7°C° 0 mm 3 m/s 735 mmHg 83%

    27 Octombrie, Sâmbătă

    Timp Temperatura Precipitaţii Vânt Presiune Umiditate
    00:00 +7°C° 0 mm 3 m/s 734 mmHg 84%
    01:00 +7°C° 0 mm 3 m/s 734 mmHg 85%
    02:00 +7°C° 0 mm 3 m/s 733 mmHg 86%
    03:00 +7°C° 0 mm 2 m/s 733 mmHg 87%
    04:00 +7°C° 0 mm 2 m/s 733 mmHg 88%
    05:00 +8°C° 0 mm 2 m/s 733 mmHg 88%
    06:00 +8°C° 0 mm 2 m/s 732 mmHg 88%
    07:00 +8°C° 0 mm 2 m/s 732 mmHg 89%
    08:00 +10°C° 0 mm 2 m/s 732 mmHg 82%
    09:00 +13°C° 0 mm 2 m/s 732 mmHg 76%
    10:00 +14°C° 0 mm 2 m/s 732 mmHg 70%
    11:00 +15°C° 0 mm 2 m/s 732 mmHg 67%
    12:00 +16°C° 0 mm 2 m/s 732 mmHg 64%
    13:00 +17°C° 0 mm 2 m/s 731 mmHg 61%
    14:00 +17°C° 0 mm 2 m/s 731 mmHg 65%
    15:00 +16°C° 0 mm 2 m/s 731 mmHg 69%
    16:00 +15°C° 0 mm 2 m/s 730 mmHg 73%
    17:00 +14°C° 0.2 mm 3 m/s 730 mmHg 75%
    18:00 +14°C° 0.2 mm 3 m/s 729 mmHg 78%
    19:00 +13°C° 0.2 mm 4 m/s 729 mmHg 81%
    20:00 +13°C° 0 mm 4 m/s 728 mmHg 80%
    21:00 +13°C° 0 mm 4 m/s 728 mmHg 79%
    22:00 +13°C° 0 mm 4 m/s 727 mmHg 78%
    23:00 +14°C° 0 mm 4 m/s 727 mmHg 77%

    28 Octombrie, Duminică

    Timp Temperatura Precipitaţii Vânt Presiune Umiditate
    00:00 +14°C° 0 mm 4 m/s 727 mmHg 76%
    01:00 +14°C° 0 mm 4 m/s 727 mmHg 75%
    02:00 +14°C° 0 mm 4 m/s 727 mmHg 75%
    03:00 +14°C° 0 mm 4 m/s 727 mmHg 75%
    04:00 +14°C° 0 mm 4 m/s 727 mmHg 75%
    05:00 +14°C° 0 mm 4 m/s 727 mmHg 75%
    06:00 +14°C° 0 mm 4 m/s 727 mmHg 75%
    07:00 +14°C° 0 mm 4 m/s 727 mmHg 75%
    08:00 +14°C° 0.1 mm 4 m/s 727 mmHg 75%
    09:00 +14°C° 0.1 mm 4 m/s 727 mmHg 75%
    10:00 +15°C° 0.1 mm 4 m/s 728 mmHg 75%
    11:00 +14°C° 0 mm 4 m/s 728 mmHg 74%
    12:00 +14°C° 0 mm 5 m/s 729 mmHg 74%
    13:00 +14°C° 0 mm 6 m/s 729 mmHg 73%
    14:00 +13°C° 0 mm 5 m/s 730 mmHg 74%
    15:00 +12°C° 0 mm 5 m/s 731 mmHg 75%
    16:00 +10°C° 0 mm 5 m/s 731 mmHg 76%
    17:00 +10°C° 0 mm 4 m/s 732 mmHg 78%
    18:00 +8°C° 0 mm 4 m/s 733 mmHg 79%
    19:00 +8°C° 0 mm 3 m/s 734 mmHg 81%
    20:00 +8°C° 0 mm 3 m/s 735 mmHg 82%
    21:00 +7°C° 0 mm 3 m/s 736 mmHg 84%
    22:00 +6°C° 0 mm 2 m/s 737 mmHg 85%
    23:00 +6°C° 0 mm 2 m/s 737 mmHg 85%
    Arată mai mult